{"data":{"norad_id":57220,"intl_designator":"2023-094C","name":"STARLINK-5880","alt_names":[],"object_type":"PAYLOAD","status":"ACTIVE","operator":null,"country":"US","launch_date":"2023-07-07","launch_site_code":"AFWTR","launch_vehicle":null,"mission":null,"orbit_class":"UNKNOWN","rcs_meters":null,"size_class":null,"mass_kg":null,"dimensions":null,"purposes":["comms"],"wikipedia_slug":null,"has_3d_model":false,"image_url":null,"decayed_at":null,"tle_current":{"epoch":"2026-05-24T18:44:41.739360Z","epoch_age_seconds":93996,"freshness":"FRESH","line1":"1 57220U 23094C   26144.78103865  .00000743  00000+0  37385-4 0  9992","line2":"2 57220  43.0031 324.3202 0001583 266.8954  93.1717 15.26742281158710","mean_motion":15.26742281,"eccentricity":0.0001583,"inclination_deg":43.0031,"raan_deg":324.3202,"arg_perigee_deg":266.8954,"mean_anomaly_deg":93.1717,"bstar":3.7385e-5,"rev_number":15871,"period_min":94.318472601467,"perigee_km":484.47215197263,"apogee_km":486.64519802333,"semimajor_km":6863.695674998,"source":"CELESTRAK","updated_at":"2026-05-25T13:38:18.251848Z"}}}